Date String (YYYY-MM-DD hh:mm:ss) UTC,Instrument flags,absolute air pressure of the measurement (hPa),sample flow rate (lpm),inlet stack bypass flow (lpm),air temperature of the measurement (°C),ambient temperature measured by the external sensor (°C),aerosol sample conditioner tube jacket temperature (°C),OPC LED temperature (°C),internal box temperature (°C),relative humidity of the measurement (%),span deviation,mass concentration of particles derived from Lorenz-Mie calculation of OPC scattering (μg/m³),mass concentration of particles derived from Lorenz-Mie calculation of OPC scattering (μg/m³),mass concentration of particles derived from Lorenz-Mie calculation of OPC scattering (μg/m³)
DateTimeUTC,F1_M11,P_M11,Q1_M11,Q2_M11,T1_M11,T2_M11,T3_M11,T4_M11,T5_M11,U1_M11,ZSPAN_M11,X2_M11,X0_M11,X1_M11
2024-03-23 16:00:00,SystemResetWarning,0823.5,4.99,000.00,020.5,019.9,000.0,028.9,022.3,21.8,0000.0,0005.95,0023.86,0004.20
2024-03-23 16:01:00,SystemResetWarning,0823.5,4.99,000.00,020.5,019.9,000.0,028.9,022.3,21.4,0000.0,0005.96,0023.52,0004.20
2024-03-23 16:02:00,SystemResetWarning,0823.5,5.01,000.00,020.5,020.0,000.0,028.9,022.3,21.4,0000.0,0005.93,0023.82,0004.21
2024-03-23 16:03:00,SystemResetWarning,0823.5,5.01,000.00,020.5,020.0,000.0,028.9,022.3,21.4,0000.0,0005.87,0022.63,0004.21
2024-03-23 16:04:00,SystemResetWarning,0823.4,5.01,000.00,020.5,020.0,000.0,028.9,022.3,21.3,0000.0,0005.88,0021.89,0004.21
2024-03-23 16:05:00,SystemResetWarning,0823.4,4.99,000.00,020.5,020.0,000.0,028.9,022.3,21.1,0000.0,0005.95,0022.90,0004.20
2024-03-23 16:06:00,SystemResetWarning,0823.4,4.99,000.00,020.5,020.0,000.0,028.9,022.3,21.2,0000.0,0006.00,0023.33,0004.21
2024-03-23 16:07:00,SystemResetWarning,0823.4,5.00,000.00,020.5,020.0,000.0,028.9,022.4,21.1,0000.0,0006.05,0022.94,0004.22
2024-03-23 16:08:00,SystemResetWarning,0823.4,5.00,000.00,020.5,020.0,000.0,028.9,022.4,21.2,0000.0,0006.08,0022.69,0004.24
2024-03-23 16:09:00,SystemResetWarning,0823.4,5.00,000.00,020.5,020.0,000.0,028.9,022.4,21.4,0000.0,0006.09,0022.02,0004.23
2024-03-23 16:10:00,SystemResetWarning,0823.4,5.00,000.00,020.6,020.0,000.0,029.0,022.4,21.3,0000.0,0006.10,0022.01,0004.24
2024-03-23 16:11:00,SystemResetWarning,0823.3,5.00,000.00,020.6,020.0,000.0,029.0,022.4,21.2,0000.0,0006.17,0021.78,0004.25
2024-03-23 16:12:00,SystemResetWarning,0823.2,5.01,000.00,020.6,020.1,000.0,029.0,022.4,21.3,0000.0,0006.17,0022.62,0004.27
2024-03-23 16:13:00,SystemResetWarning,0823.3,5.00,000.00,020.6,020.1,000.0,029.0,022.4,21.3,0000.0,0006.22,0022.11,0004.27
2024-03-23 16:14:00,SystemResetWarning,0823.3,4.99,000.00,020.6,020.1,000.0,029.0,022.4,21.2,0000.0,0006.33,0022.24,0004.29
2024-03-23 16:15:00,SystemResetWarning,0823.2,5.00,000.00,020.6,020.1,000.0,029.0,022.4,21.4,0000.0,0006.35,0021.52,0004.32
2024-03-23 16:16:00,SystemResetWarning,0823.2,5.01,000.00,020.6,020.1,000.0,029.0,022.5,21.2,0000.0,0006.31,0020.18,0004.34
2024-03-23 16:17:00,SystemResetWarning,0823.2,5.01,000.00,020.6,020.1,000.0,029.0,022.5,20.9,0000.0,0006.33,0019.87,0004.35
2024-03-23 16:18:00,SystemResetWarning,0823.2,5.00,000.00,020.6,020.1,000.0,029.0,022.5,20.9,0000.0,0006.31,0020.26,0004.36
2024-03-23 16:19:00,SystemResetWarning,0823.1,4.99,000.00,020.6,020.1,000.0,029.0,022.5,20.9,0000.0,0006.30,0019.96,0004.37
2024-03-23 16:20:00,SystemResetWarning,0823.1,4.99,000.00,020.7,020.2,000.0,029.1,022.5,21.2,0000.0,0006.26,0019.62,0004.38
2024-03-23 16:21:00,SystemResetWarning,0823.1,5.01,000.00,020.7,020.2,000.0,029.1,022.5,21.0,0000.0,0006.28,0019.88,0004.38
2024-03-23 16:22:00,SystemResetWarning,0823.3,5.01,000.00,020.7,020.2,000.0,029.1,022.5,20.8,0000.0,0006.29,0020.45,0004.39
2024-03-23 16:23:00,SystemResetWarning,0823.3,5.01,000.00,020.7,020.2,000.0,029.1,022.5,20.7,0000.0,0006.27,0019.87,0004.39
2024-03-23 16:24:00,SystemResetWarning,0823.1,4.99,000.00,020.7,020.2,000.0,029.1,022.5,20.8,0000.0,0006.22,0019.02,0004.40
2024-03-23 16:25:00,SystemResetWarning,0823.2,4.99,000.00,020.7,020.2,000.0,029.1,022.6,20.8,0000.0,0006.20,0019.10,0004.41
2024-03-23 16:26:00,SystemResetWarning,0823.1,5.00,000.00,020.7,020.2,000.0,029.1,022.6,20.9,0000.0,0006.15,0020.67,0004.40
2024-03-23 16:27:00,SystemResetWarning,0823.1,5.00,000.00,020.8,020.3,000.0,029.1,022.6,21.2,0000.0,0006.20,0021.00,0004.42
2024-03-23 16:28:00,SystemResetWarning,0823.1,5.00,000.00,020.8,020.3,000.0,029.1,022.6,21.5,0000.0,0006.18,0021.06,0004.43
2024-03-23 16:29:00,SystemResetWarning,0823.1,5.01,000.00,020.8,020.3,000.0,029.1,022.6,21.2,0000.0,0006.21,0020.42,0004.44
2024-03-23 16:30:00,SystemResetWarning,0823.1,5.01,000.00,020.8,020.3,000.0,029.2,022.6,20.8,0000.0,0006.29,0019.90,0004.46
2024-03-23 16:31:00,SystemResetWarning,0823.1,4.98,000.00,020.8,020.3,000.0,029.2,022.6,20.9,0000.0,0006.31,0020.31,0004.49
2024-03-23 16:32:00,SystemResetWarning,0823.1,5.00,000.00,020.8,020.3,000.0,029.2,022.7,20.7,0000.0,0006.22,0020.58,0004.49
2024-03-23 16:33:00,SystemResetWarning,0823.0,5.01,000.00,020.8,020.3,000.0,029.2,022.7,20.7,0000.0,0006.21,0021.65,0004.50
2024-03-23 16:34:00,SystemResetWarning,0822.9,5.00,000.00,020.8,020.3,000.0,029.2,022.7,20.6,0000.0,0006.20,0021.88,0004.52
2024-03-23 16:35:00,SystemResetWarning,0822.9,5.00,000.00,020.8,020.3,000.0,029.2,022.7,20.5,0000.0,0006.25,0023.10,0004.53
2024-03-23 16:36:00,SystemResetWarning,0823.0,5.00,000.00,020.9,020.4,000.0,029.2,022.7,20.4,0000.0,0006.23,0023.31,0004.55
2024-03-23 16:37:00,SystemResetWarning,0822.9,5.00,000.00,020.9,020.4,000.0,029.2,022.7,21.0,0000.0,0006.26,0022.12,0004.57
2024-03-23 16:38:00,SystemResetWarning,0823.0,5.01,000.00,020.9,020.4,000.0,029.2,022.7,21.0,0000.0,0006.22,0021.69,0004.59
2024-03-23 16:39:00,SystemResetWarning,0822.9,5.01,000.00,020.9,020.4,000.0,029.3,022.7,20.6,0000.0,0006.21,0022.20,0004.58
2024-03-23 16:40:00,SystemResetWarning,0822.9,4.99,000.00,020.9,020.4,000.0,029.3,022.7,20.4,0000.0,0006.23,0022.52,0004.58
2024-03-23 16:41:00,SystemResetWarning,0822.8,4.99,000.00,020.9,020.4,000.0,029.3,022.8,20.3,0000.0,0006.14,0022.82,0004.56
2024-03-23 16:42:00,SystemResetWarning,0822.9,5.00,000.00,020.9,020.4,000.0,029.3,022.8,20.5,0000.0,0006.12,0023.33,0004.53
2024-03-23 16:43:00,SystemResetWarning,0822.8,5.00,000.00,020.9,020.4,000.0,029.3,022.8,20.9,0000.0,0006.18,0022.93,0004.53
2024-03-23 16:44:00,SystemResetWarning,0822.9,5.01,000.00,021.0,020.5,000.0,029.3,022.8,21.1,0000.0,0006.21,0021.86,0004.53
2024-03-23 16:45:00,SystemResetWarning,0823.0,5.00,000.00,021.0,020.5,000.0,029.3,022.8,20.6,0000.0,0006.24,0022.19,0004.53
2024-03-23 16:46:00,SystemResetWarning,0822.6,4.99,000.00,021.0,020.5,000.0,029.3,022.8,20.5,0000.0,0006.21,0022.41,0004.53
2024-03-23 16:47:00,SystemResetWarning,0822.8,4.99,000.00,021.0,020.5,000.0,029.3,022.8,20.3,0000.0,0006.18,0022.07,0004.52
2024-03-23 16:48:00,SystemResetWarning,0822.8,5.00,000.00,021.0,020.5,000.0,029.4,022.8,20.2,0000.0,0006.15,0021.63,0004.50
2024-03-23 16:49:00,SystemResetWarning,0822.7,5.01,000.00,021.0,020.5,000.0,029.4,022.8,20.0,0000.0,0006.19,0022.82,0004.48
2024-03-23 16:50:00,SystemResetWarning,0822.7,5.01,000.00,021.0,020.5,000.0,029.4,022.8,20.2,0000.0,0006.20,0022.07,0004.47
2024-03-23 16:51:00,SystemResetWarning,0822.8,4.99,000.00,021.0,020.5,000.0,029.4,022.8,20.5,0000.0,0006.18,0021.98,0004.47
2024-03-23 16:52:00,SystemResetWarning,0822.7,5.00,000.00,021.0,020.5,000.0,029.4,022.9,20.2,0000.0,0006.20,0022.11,0004.48
2024-03-23 16:53:00,SystemResetWarning,0822.6,5.00,000.00,021.1,020.6,000.0,029.4,022.9,20.4,0000.0,0006.20,0023.36,0004.49
2024-03-23 16:54:00,SystemResetWarning,0823.0,4.99,000.00,021.1,020.6,000.0,029.4,022.9,20.4,0000.0,0006.23,0023.65,0004.50
2024-03-23 16:55:00,SystemResetWarning,0823.1,5.00,000.00,021.1,020.6,000.0,029.4,022.9,20.6,0000.0,0006.23,0024.38,0004.50
2024-03-23 16:56:00,SystemResetWarning,0823.0,5.01,000.00,021.1,020.6,000.0,029.4,022.9,20.5,0000.0,0006.22,0023.71,0004.52
2024-03-23 16:57:00,SystemResetWarning,0822.6,5.01,000.00,021.1,020.6,000.0,029.5,022.9,20.5,0000.0,0006.28,0024.19,0004.53
2024-03-23 16:58:00,SystemResetWarning,0822.4,5.01,000.00,021.1,020.6,000.0,029.5,023.0,20.2,0000.0,0006.37,0025.67,0004.53
2024-03-23 16:59:00,SystemResetWarning,0822.4,5.00,000.00,021.1,020.6,000.0,029.5,023.0,20.2,0000.0,0006.42,0026.24,0004.54
